Zurück zum Katalog

NOAA 16 DEB

AktivSSO
NORAD 41196·DEBRIS·🇺🇸 United States

Gestartet Sep 21, 2000 von Vandenberg Space Force Base

Loading…

Nächste Überflüge (nächste 24 Stunden)

TLE

AktuellSource: Space-Track

Epoche: Sep 13, 2026, 23:49 UTC

1 41196U 00055CZ  26256.99290224  .00001922  00000-0  10049-2 0  9999
2 41196  98.7339 276.2645 0053425  48.5140 312.0602 14.14804774550706

Verfolge NOAA 16 DEB in Echtzeit mit AllMySat

Download on the App Store